Algona, IA

7:35 PM CDT on March 30, 2017 (GMT -0500)
Algona Municipal

Weather History for KAXA - April, 2014

Change the Weather History Date:

Friday, April 18, 2014

  Actual Average Record
Temperature  
Mean Temperature 45 °F -  
Max Temperature 60 °F 57 °F 86 °F (2002)
Min Temperature 30 °F 37 °F 30 °F (1999)
Degree Days  
Heating Degree Days 20    
Moisture  
Dew Point 31 °F    
Average Humidity 61    
Maximum Humidity 93    
Minimum Humidity 31    
Precipitation  
Precipitation 0.00 in - - ()
Sea Level Pressure  
Sea Level Pressure 30.25 in    
Wind  
Wind Speed 10 mph (SE)    
Max Wind Speed 21 mph    
Max Gust Speed 31 mph    
Visibility 9 miles    
Events      
Averages and records for this station are not official NWS values.
T = Trace of Precipitation, MM = Missing Value Source: NWS Daily Summary

Daily Weather History Graph

Daily Weather History Graph

Search for Another Location

Airport or City:

Trip Planner

Search our weather history database for the weather conditions in past years. The results will help you decide how hot, cold, wet, or windy it might be!

Date:

Astronomy

Apr. 18, 2014 Rise Set
Actual Time 6:30 AM CDT 8:03 PM CDT
Civil Twilight 6:00 AM CDT 8:33 PM CDT
Nautical Twilight 5:24 AM CDT 9:09 PM CDT
Astronomical Twilight 4:46 AM CDT 9:48 PM CDT
Moon 11:52 PM CDT (4/18) 8:49 AM CDT (4/18)
Length of Visible Light 14h 32m
Length of Day
13h 33m
Waning Gibbous, 87% of the Moon is Illuminated
Apr 18
Waning Gibbous
Apr 22
Last Quarter
Apr 29
New
May 6
First Quarter
May 14
Full

Hourly Weather History & Observations

Time (CDT) Temp. Windchill Dew Point Humidity Pressure Visibility Wind Dir Wind Speed Gust Speed Precip Events Conditions
12:15 AM 33.8 °F 28.6 °F 30.2 °F 87% 30.31 in 10.0 mi East 5.8 mph - N/A   Clear
12:35 AM 32.0 °F 27.5 °F 30.2 °F 93% 30.32 in 10.0 mi ESE 4.6 mph - N/A   Clear
12:55 AM 32.0 °F 27.5 °F 30.2 °F 93% 30.31 in 10.0 mi ESE 4.6 mph - N/A   Partly Cloudy
1:15 AM 32.0 °F 26.4 °F 30.2 °F 93% 30.31 in 9.0 mi ESE 5.8 mph - N/A   Mostly Cloudy
1:35 AM 32.0 °F 26.4 °F 28.4 °F 87% 30.31 in 10.0 mi ESE 5.8 mph - N/A   Mostly Cloudy
1:55 AM 32.0 °F 27.5 °F 28.4 °F 87% 30.31 in 9.0 mi ESE 4.6 mph - N/A   Partly Cloudy
2:15 AM 32.0 °F 27.5 °F 30.2 °F 93% 30.30 in 8.0 mi SE 4.6 mph - N/A   Mostly Cloudy
2:35 AM 32.0 °F 28.7 °F 28.4 °F 87% 30.30 in 8.0 mi ESE 3.5 mph - N/A   Partly Cloudy
2:55 AM 32.0 °F 26.4 °F 28.4 °F 87% 30.30 in 8.0 mi ESE 5.8 mph - N/A   Clear
3:15 AM 32.0 °F 26.4 °F 28.4 °F 87% 30.30 in 7.0 mi ESE 5.8 mph - N/A   Mostly Cloudy
3:35 AM 32.0 °F 27.5 °F 30.2 °F 93% 30.30 in 7.0 mi ESE 4.6 mph - N/A   Overcast
3:55 AM 32.0 °F 27.5 °F 30.2 °F 93% 30.30 in 7.0 mi ESE 4.6 mph - N/A   Overcast
4:15 AM 32.0 °F 27.5 °F 30.2 °F 93% 30.30 in 6.0 mi ESE 4.6 mph - N/A   Overcast
4:35 AM 32.0 °F 27.5 °F 30.2 °F 93% 30.30 in - ESE 4.6 mph - N/A   Overcast
4:55 AM 32.0 °F 26.4 °F 28.4 °F 87% 30.31 in 7.0 mi ESE 5.8 mph - N/A   Scattered Clouds
5:15 AM 32.0 °F 26.4 °F 28.4 °F 87% 30.31 in 7.0 mi ESE 5.8 mph - N/A   Mostly Cloudy
5:35 AM 30.2 °F 25.4 °F 28.4 °F 93% 30.31 in 7.0 mi SE 4.6 mph - N/A   Partly Cloudy
5:55 AM 30.2 °F 24.3 °F 28.4 °F 93% 30.31 in 7.0 mi SE 5.8 mph - N/A   Partly Cloudy
6:15 AM 30.2 °F 23.4 °F 28.4 °F 93% 30.32 in 7.0 mi SE 6.9 mph - N/A   Partly Cloudy
6:35 AM 30.2 °F 23.4 °F 28.4 °F 93% 30.32 in 5.0 mi SE 6.9 mph - N/A   Clear
6:55 AM 30.2 °F 25.4 °F 28.4 °F 93% 30.33 in 5.0 mi SE 4.6 mph - N/A   Clear
7:15 AM 30.2 °F 22.6 °F 28.4 °F 93% 30.33 in 5.0 mi SE 8.1 mph - N/A   Clear
7:35 AM 32.0 °F 23.6 °F 30.2 °F 93% 30.33 in 5.0 mi SE 10.4 mph - N/A   Clear
7:55 AM 33.8 °F 26.4 °F 30.2 °F 87% 30.33 in 6.0 mi SE 9.2 mph - N/A   Clear
8:15 AM 33.8 °F 27.0 °F 30.2 °F 87% 30.33 in 7.0 mi SE 8.1 mph - N/A   Clear
8:35 AM 35.6 °F 28.0 °F 32.0 °F 87% 30.34 in 8.0 mi SE 10.4 mph - N/A   Clear
8:55 AM 37.4 °F 29.8 °F 32.0 °F 81% 30.33 in 9.0 mi SE 11.5 mph - N/A   Clear
9:15 AM 37.4 °F 28.5 °F 32.0 °F 81% 30.32 in 9.0 mi SE 15.0 mph - N/A   Clear
9:35 AM 39.2 °F 31.6 °F 32.0 °F 75% 30.32 in 10.0 mi SE 12.7 mph - N/A   Clear
9:55 AM 41.0 °F 33.9 °F 32.0 °F 70% 30.32 in 10.0 mi SE 12.7 mph - N/A   Clear
10:15 AM 42.8 °F 36.6 °F 32.0 °F 66% 30.33 in 10.0 mi SE 11.5 mph - N/A   Clear
10:35 AM 44.6 °F 38.4 °F 32.0 °F 61% 30.33 in 10.0 mi SE 12.7 mph - N/A   Clear
11:15 AM 48.2 °F - 32.0 °F 54% 30.32 in 10.0 mi SE 13.8 mph - N/A   Clear
11:35 AM 48.2 °F - 32.0 °F 54% 30.31 in 10.0 mi SE 12.7 mph 18.4 mph N/A   Clear
11:55 AM 48.2 °F - 32.0 °F 54% 30.32 in 10.0 mi SE 12.7 mph 18.4 mph N/A   Partly Cloudy
12:15 PM 50.0 °F - 33.8 °F 54% 30.30 in 10.0 mi SE 11.5 mph 18.4 mph N/A   Partly Cloudy
12:35 PM 53.6 °F - 33.8 °F 47% 30.29 in 10.0 mi SSE 15.0 mph 20.7 mph N/A   Clear
12:55 PM 53.6 °F - 33.8 °F 47% 30.29 in 10.0 mi SE 16.1 mph - N/A   Clear
1:15 PM 55.4 °F - 33.8 °F 44% 30.28 in 10.0 mi SE 15.0 mph 23.0 mph N/A   Clear
1:35 PM 57.2 °F - 33.8 °F 41% 30.27 in 10.0 mi SSE 15.0 mph - N/A   Clear
1:55 PM 57.2 °F - 33.8 °F 41% 30.25 in 10.0 mi SE 16.1 mph 24.2 mph N/A   Clear
2:15 PM 57.2 °F - 32.0 °F 38% 30.26 in 10.0 mi SE 12.7 mph 20.7 mph N/A   Clear
2:35 PM 59.0 °F - 32.0 °F 36% 30.25 in 10.0 mi SSE 13.8 mph 25.3 mph N/A   Clear
2:55 PM 59.0 °F - 32.0 °F 36% 30.24 in 10.0 mi SE 17.3 mph 24.2 mph N/A   Clear
3:15 PM 59.0 °F - 32.0 °F 36% 30.23 in 10.0 mi SE 17.3 mph 23.0 mph N/A   Clear
3:35 PM 60.8 °F - 32.0 °F 34% 30.22 in 10.0 mi SE 15.0 mph 24.2 mph N/A   Clear
3:55 PM 60.8 °F - 32.0 °F 34% 30.21 in 10.0 mi SE 16.1 mph 23.0 mph N/A   Clear
4:15 PM 60.8 °F - 30.2 °F 31% 30.20 in 10.0 mi SE 16.1 mph 26.5 mph N/A   Clear
4:35 PM 60.8 °F - 30.2 °F 31% 30.20 in 10.0 mi SE 18.4 mph - N/A   Clear
4:55 PM 60.8 °F - 32.0 °F 34% 30.18 in 10.0 mi SSE 18.4 mph 27.6 mph N/A   Clear
5:15 PM 60.8 °F - 32.0 °F 34% 30.18 in 10.0 mi SE 19.6 mph 28.8 mph N/A   Clear
5:35 PM 60.8 °F - 30.2 °F 31% 30.17 in 10.0 mi SSE 19.6 mph 27.6 mph N/A   Clear
5:55 PM 60.8 °F - 30.2 °F 31% 30.17 in 10.0 mi SSE 20.7 mph 31.1 mph N/A   Clear
6:15 PM 60.8 °F - 30.2 °F 31% 30.16 in 10.0 mi SSE 17.3 mph 26.5 mph N/A   Clear
6:35 PM 59.0 °F - 30.2 °F 34% 30.15 in 10.0 mi SSE 19.6 mph 25.3 mph N/A   Clear
6:55 PM 59.0 °F - 30.2 °F 34% 30.15 in 10.0 mi SSE 19.6 mph - N/A   Clear
7:15 PM 59.0 °F - 30.2 °F 34% 30.14 in 10.0 mi SE 17.3 mph 28.8 mph N/A   Clear
7:35 PM 57.2 °F - 30.2 °F 36% 30.13 in 10.0 mi SE 16.1 mph 23.0 mph N/A   Clear
7:55 PM 57.2 °F - 30.2 °F 36% 30.13 in 10.0 mi SE 18.4 mph 26.5 mph N/A   Clear
8:15 PM 55.4 °F - 30.2 °F 38% 30.14 in 10.0 mi SE 12.7 mph 21.9 mph N/A   Clear
8:35 PM 55.4 °F - 30.2 °F 38% 30.14 in 10.0 mi SE 13.8 mph 19.6 mph N/A   Clear
8:55 PM 53.6 °F - 30.2 °F 41% 30.13 in 10.0 mi SE 16.1 mph - N/A   Clear
9:15 PM 51.8 °F - 32.0 °F 47% 30.14 in 10.0 mi SE 15.0 mph - N/A   Clear
9:35 PM 51.8 °F - 32.0 °F 47% 30.14 in 10.0 mi SE 15.0 mph 20.7 mph N/A   Clear
9:55 PM 50.0 °F - 32.0 °F 50% 30.13 in 10.0 mi SE 16.1 mph 21.9 mph N/A   Clear
10:15 PM 50.0 °F - 32.0 °F 50% 30.13 in 10.0 mi SE 16.1 mph 25.3 mph N/A   Clear
10:35 PM 51.8 °F - 30.2 °F 44% 30.12 in 10.0 mi SE 19.6 mph 27.6 mph N/A   Clear
10:55 PM 51.8 °F - 30.2 °F 44% 30.12 in 10.0 mi SSE 19.6 mph 26.5 mph N/A   Clear
11:15 PM 51.8 °F - 30.2 °F 44% 30.12 in 10.0 mi SE 19.6 mph 28.8 mph N/A   Clear
11:35 PM 51.8 °F - 30.2 °F 44% 30.12 in 10.0 mi SE 20.7 mph 27.6 mph N/A   Clear
11:55 PM 51.8 °F - 30.2 °F 44% 30.12 in 10.0 mi SSE 20.7 mph 27.6 mph N/A   Clear